SCP
0 0 0 0 0 0 0 0 0 0 0 0 0 0 0 0 0 0 0 0 0 0 0 1 1 1 1 2 3 3 3 3 3 3 3 2 1 0 1 1 1 1 1 1
0 0 0 0 0 0 0 0 0 0 0 0 0 0 0 0 0 0 0 0 0 0 0 0 1 1 1 2 3 3 3 3 3 3 3 2 1 0 0 1 1 1 1 1
0 0 0 0 0 0 0 0 0 0 0 0 0 0 0 0 0 0 0 0 0 0 0 0 0 0 0 1 2 3 3 3 3 3 3 2 1 0 0 1 1 1 1 1
0 0 0 0 0 0 0 0 0 0 0 0 0 0 0 0 0 0 0 0 0 0 0 0 0 0 0 1 3 3 3 3 3 3 3 2 1 0 0 0 1 1 1 1
0 0 0 0 0 0 0 0 0 0 0 0 0 0 0 0 0 0 0 0 0 0 0 0 0 0 0 1 2 3 3 3 3 3 3 2 1 0 0 0 1 1 1 1
0 0 0 0 0 0 0 0 0 0 0 0 0 0 0 0 0 0 0 0 0 0 0 0 0 0 0 0 1 3 3 3 2 3 3 2 1 0 0 0 1 1 1 1
0 0 0 0 0 0 0 0 0 0 0 0 0 0 0 0 0 0 0 0 0 0 0 0 0 0 0 0 1 2 3 2 2 2 2 2 2 1 0 0 0 1 1 1
0 0 0 0 0 0 0 0 0 0 0 0 0 0 0 0 0 0 0 0 0 0 0 0 0 0 0 0 1 2 2 2 2 2 2 2 2 1 0 0 0 1 1 2
0 0 0 0 0 0 0 0 0 0 0 0 0 0 0 0 0 0 0 0 0 0 0 0 0 0 0 0 0 1 2 2 2 2 2 2 2 1 1 0 0 0 1 2
0 0 0 0 0 0 0 0 0 0 0 0 0 0 0 0 0 0 0 0 0 0 0 0 0 0 0 0 0 0 1 1 1 1 2 2 2 2 1 0 0 0 1 2
0 0 0 0 0 0 0 0 0 0 0 0 0 0 0 0 0 0 0 0 0 0 0 0 0 0 0 0 0 0 0 1 1 1 1 2 2 2 1 1 0 0 1 2
0 0 0 0 0 0 0 0 0 0 0 0 0 0 0 0 0 0 0 0 0 0 0 0 0 0 0 0 0 0 0 0 1 1 1 1 2 2 2 1 1 0 0 1
0 0 0 0 0 0 0 0 0 0 0 0 0 0 0 0 0 0 0 0 0 0 0 0 0 0 0 0 0 0 0 0 0 0 1 1 1 2 2 1 1 1 0 0
0 0 0 0 0 0 0 0 0 0 0 0 0 0 0 0 0 0 0 0 0 0 0 0 0 0 0 0 0 0 0 0 0 0 0 0 1 1 1 1 1 1 1 0
0 0 0 0 0 0 0 0 0 0 0 0 0 0 0 0 0 0 0 0 0 0 0 0 0 0 0 0 0 0 0 0 0 0 0 0 0 0 1 1 1 1 1 1
0 0 0 0 0 0 0 0 0 0 0 0 0 0 0 0 0 0 0 0 0 0 0 0 0 0 0 0 0 0 0 0 0 0 0 0 0 0 0 0 0 1 1 0
0 0 0 0 0 0 0 0 0 0 0 0 0 0 0 0 0 0 0 0 0 0 0 0 0 0 0 0 0 0 0 0 0 0 0 0 0 0 0 0 0 0 0 0
0 0 0 0 0 0 0 0 0 0 0 0 0 0 0 0 0 0 0 0 0 0 0 0 0 0 0 0 0 0 0 0 0 0 0 0 0 0 0 0 0 0 0 0
0 0 0 0 0 0 0 0 0 0 0 0 0 0 0 0 0 0 0 0 0 0 0 0 0 0 0 0 0 0 0 0 0 0 0 0 0 0 0 0 0 0 0 1
0 0 0 0 0 0 0 0 0 0 0 0 0 0 0 0 0 0 0 0 0 0 0 0 0 0 0 0 0 0 0 0 0 0 0 0 0 0 0 0 0 0 1 1
0 0 0 0 0 0 0 0 0 0 0 0 0 0 0 0 0 0 0 0 0 0 0 0 0 0 0 0 0 0 0 0 0 0 0 0 0 0 0 0 0 0 1 1
0 0 0 0 0 0 0 0 0 0 0 0 0 0 0 0 0 0 0 0 0 0 0 0 0 0 0 0 0 0 0 0 0 0 0 0 0 0 0 0 0 1 1 1
0 0 0 0 0 0 0 0 0 0 0 0 0 0 0 0 0 0 0 0 0 0 0 0 0 0 0 0 0 0 0 0 0 0 0 0 0 0 0 0 1 1 0 0
0 0 0 0 0 0 0 0 0 0 0 0 0 0 0 0 0 0 0 0 0 0 0 0 0 0 0 0 0 0 0 0 0 0 0 0 0 0 0 0 0 0 0 0
0 0 0 0 0 0 0 0 0 0 0 0 0 0 0 0 0 0 0 0 0 0 0 0 0 0 0 0 0 0 0 0 0 0 0 0 0 0 0 0 0 0 0 0
0 0 0 0 0 0 0 0 0 0 0 0 0 0 0 0 0 0 0 0 0 0 0 0 0 0 0 0 0 0 0 0 0 0 0 0 0 0 0 0 0 0 0 0
Wind_Speed
1 0 0 1 2 4 5 5 7 5 1 3 7 9 6 3 3 3 2 1 1 1 1 2 2 2 3 3 3 2 2 3 3 2 2 2 2 3 2 2 2 2 2 2
1 1 2 3 3 4 5 6 6 5 3 4 6 10 7 4 4 3 2 1 0 1 2 2 1 2 2 2 2 2 3 3 3 2 2 2 2 2 2 2 2 2 2 1
1 1 2 2 3 4 4 4 5 6 6 5 6 8 4 2 2 2 1 1 0 0 1 1 2 2 3 3 2 3 3 3 3 3 2 2 2 2 2 3 2 2 2 2
1 0 1 2 2 3 4 2 4 5 5 4 1 6 4 3 3 2 2 1 0 1 1 1 2 2 3 3 3 3 3 3 3 3 2 2 2 2 3 2 2 3 2 2
1 1 1 2 2 3 3 5 5 5 4 6 4 5 7 3 3 2 1 1 0 0 0 1 2 2 2 3 3 3 3 3 3 3 3 2 2 2 2 2 3 3 3 2
2 1 1 2 2 2 4 5 4 4 3 6 6 6 6 2 3 2 1 1 1 1 0 1 1 2 2 3 2 2 3 4 3 3 3 3 3 3 3 3 3 3 2 2
2 3 2 1 2 1 2 2 2 2 3 6 2 4 6 1 1 2 2 1 1 1 1 2 2 2 2 3 3 2 3 4 4 4 3 3 3 3 3 3 3 3 3 3
3 2 3 1 0 1 2 1 1 3 4 4 2 6 4 2 3 3 2 1 2 2 2 2 2 2 3 4 4 3 3 4 4 4 4 4 4 3 3 3 3 3 3 3
3 2 2 2 1 1 1 1 1 2 4 5 6 4 1 2 2 2 1 1 1 2 3 3 3 2 3 3 4 4 3 4 5 5 5 4 3 3 3 3 3 3 3 3
2 4 2 2 1 1 2 1 1 2 3 6 7 5 3 2 1 0 0 1 2 3 3 3 3 3 3 3 3 3 3 3 4 5 5 5 4 4 4 3 4 4 4 4
1 2 2 2 5 4 3 2 3 3 4 4 6 5 0 3 3 2 1 1 1 2 3 3 3 3 3 3 3 3 4 4 4 4 5 5 4 4 4 3 4 4 4 4
0 2 4 3 0 1 2 3 4 3 5 4 4 6 1 4 3 2 0 1 1 2 2 3 4 4 4 4 5 5 4 5 5 5 5 5 5 4 4 4 4 4 4 4
1 2 3 3 1 1 2 3 3 2 2 4 5 7 2 3 2 2 2 2 2 2 3 4 4 4 5 5 5 5 5 5 6 6 5 6 5 5 4 5 5 4 4 5
1 3 6 7 3 1 4 5 5 5 5 6 9 10 5 2 3 3 3 2 2 2 3 4 5 4 5 5 5 6 6 6 6 6 6 6 6 6 5 5 5 5 4 5
2 4 6 9 8 7 9 8 8 10 10 9 9 9 8 4 4 4 2 2 3 3 4 5 5 5 5 6 6 6 6 6 6 6 6 6 6 6 6 5 5 5 5 5
2 4 4 8 8 8 11 10 11 12 12 13 13 14 7 4 3 3 3 3 4 5 5 6 6 6 6 7 7 7 7 7 7 7 6 6 6 6 6 6 5 5 5 5
3 3 3 5 3 5 9 8 9 7 6 7 10 9 3 4 4 3 3 3 4 5 6 6 6 6 6 6 7 7 7 7 7 7 6 6 6 6 6 6 6 5 5 5
4 3 3 4 2 8 6 1 3 5 6 5 4 3 3 3 4 4 1 1 3 5 6 7 6 7 6 6 7 7 7 7 7 7 7 7 7 7 7 6 5 5 5 5
4 4 3 3 5 8 3 0 1 2 5 2 3 3 3 4 5 3 2 3 3 4 4 5 5 6 6 7 7 7 6 6 6 7 7 7 7 7 7 7 6 5 5 5
1 2 4 4 5 7 3 1 1 1 4 1 1 3 3 3 4 4 3 5 5 4 4 5 5 5 6 7 6 6 6 6 7 7 8 7 7 7 7 7 6 5 5 5
2 3 6 6 6 7 1 1 1 1 5 3 2 2 2 3 4 5 5 4 4 4 5 5 5 5 6 6 6 6 6 7 7 7 8 8 7 7 7 6 6 5 5 4
5 4 5 4 6 7 2 2 2 3 3 3 3 3 3 3 4 4 4 4 5 5 5 5 5 5 6 6 6 7 7 7 7 7 7 8 8 6 6 5 5 4 4 4
6 6 4 6 6 2 2 2 2 1 3 3 3 3 3 4 5 5 5 4 4 5 5 4 5 6 6 5 5 7 8 7 7 7 7 7 8 6 6 5 5 4 3 3
3 1 2 5 6 3 2 2 2 2 2 3 3 3 3 4 5 5 5 5 4 5 5 4 5 6 6 6 6 6 7 7 7 7 7 7 6 6 5 4 4 3 3 3
2 3 3 6 5 4 2 2 2 2 3 3 3 3 3 4 5 5 5 5 5 5 5 4 5 6 7 6 6 7 6 7 7 7 6 6 6 5 4 4 4 4 3 4
2 4 4 5 3 3 5 3 2 2 3 3 3 4 3 3 5 5 5 5 5 5 5 5 6 6 6 6 6 6 6 6 6 6 6 5 4 4 4 4 4 7 7 9
Wind_Direction
154 58 317 283 258 283 299 294 289 296 359 289 260 267 264 241 241 242 218 212 236 247 50 74 74 36 1 2 354 348 349 344 346 344 343 346 338 328 339 340 340 339 348 345
175 239 288 310 314 293 284 285 288 296 341 296 284 279 267 229 220 217 206 226 268 20 29 20 29 31 358 345 345 332 340 333 331 325 319 303 307 307 316 327 321 324 342 338
204 34 351 333 326 300 272 271 294 301 310 268 282 284 234 200 185 181 159 178 44 16 359 351 350 352 350 334 332 324 322 326 331 331 330 328 328 320 334 335 318 321 323 328
262 309 323 298 298 302 274 346 308 302 309 286 257 289 259 194 197 202 201 181 166 45 18 342 337 346 348 336 341 326 322 327 328 330 335 330 316 307 302 305 306 307 307 298
285 78 334 284 308 300 291 322 295 282 273 286 253 256 275 162 217 227 179 145 139 123 165 329 341 327 338 337 337 327 327 325 329 328 326 312 302 299 301 308 311 300 295 290
239 112 350 326 326 305 303 290 259 251 249 264 227 215 271 199 231 218 158 99 62 62 43 353 348 339 340 336 327 327 329 327 323 319 324 313 306 308 309 309 305 294 287 286
236 181 139 7 311 248 310 325 315 286 232 246 198 216 249 199 88 120 137 109 43 25 13 337 337 336 325 326 323 320 322 323 325 317 315 307 301 295 291 290 293 296 291 292
292 257 148 136 52 311 276 267 205 261 274 295 271 238 238 142 100 79 83 74 39 15 359 343 340 353 344 338 329 317 319 323 321 316 307 299 297 288 285 293 293 284 279 280
305 287 94 108 13 319 280 234 345 291 291 282 259 241 250 112 99 91 85 67 30 4 6 6 358 5 357 346 338 333 335 329 325 320 315 305 302 300 297 297 295 290 286 283
318 284 221 140 180 258 289 297 177 211 263 272 273 251 238 191 222 179 35 345 1 12 8 3 355 355 353 342 337 336 331 317 319 318 313 307 301 300 299 299 296 294 290 291
290 258 255 203 209 205 179 212 223 245 247 253 281 278 78 155 167 187 227 289 350 1 356 348 346 347 346 340 335 336 336 328 325 319 310 310 303 301 301 296 292 289 285 282
216 264 260 239 71 23 203 212 189 209 244 232 260 273 82 109 114 116 63 6 12 9 354 344 344 351 351 344 341 341 338 332 326 317 311 307 305 300 297 295 292 290 286 277
162 215 280 277 288 344 259 240 222 230 278 242 238 256 127 93 77 46 10 351 357 3 355 348 351 352 346 342 338 333 331 329 326 321 317 312 309 301 295 293 293 289 288 281
206 228 222 242 268 221 243 233 209 198 220 242 236 255 276 299 337 340 335 330 347 351 349 346 345 343 341 338 332 329 327 325 320 316 310 309 308 306 295 290 290 287 287 284
181 248 252 266 276 272 260 247 215 213 221 234 254 264 282 303 307 309 310 325 342 342 344 342 336 333 334 332 328 325 321 320 318 313 307 301 305 306 303 295 291 291 288 286
216 254 281 275 259 261 267 258 240 234 237 247 264 273 285 298 323 343 334 335 335 334 334 332 329 327 326 324 321 321 318 317 314 307 304 306 301 303 304 299 295 293 288 284
217 225 250 271 297 306 269 246 228 224 222 224 247 260 321 326 330 318 323 336 333 332 331 325 321 317 317 315 313 310 309 310 308 305 306 307 304 299 300 302 300 296 292 287
203 213 237 272 304 250 245 137 184 218 244 230 250 287 327 319 309 294 311 335 335 333 328 326 322 319 314 309 308 306 306 306 306 307 309 309 308 304 300 298 294 290 287 282
200 205 237 249 258 269 266 330 130 214 270 253 251 289 327 333 317 292 26 14 341 324 317 312 309 307 309 311 310 311 312 311 312 312 311 310 309 305 301 297 293 289 287 286
224 209 231 242 252 255 272 31 18 91 274 343 329 288 311 338 310 289 353 350 335 327 316 311 311 312 312 313 315 313 310 312 310 311 309 305 302 299 296 294 290 288 284 284
188 215 224 239 249 260 274 93 74 212 274 334 323 296 289 262 259 290 321 326 319 311 310 315 317 313 309 313 316 312 310 306 306 308 308 308 303 297 293 291 291 289 290 289
187 200 211 219 236 253 122 121 203 248 321 326 324 316 300 294 294 300 307 311 313 313 313 316 314 309 309 313 314 310 308 308 310 309 309 308 307 303 300 295 297 298 294 290
204 203 209 213 232 279 173 206 249 307 296 303 304 302 290 291 294 301 304 304 304 304 306 309 304 303 306 309 310 305 307 314 316 316 311 308 311 313 311 308 309 310 306 300
224 196 238 264 268 281 251 257 301 306 295 310 312 307 300 293 295 300 303 304 305 302 304 305 305 304 306 310 312 305 309 316 316 315 313 312 314 315 316 312 308 306 304 305
220 176 232 258 277 305 271 267 294 311 321 318 317 308 299 298 297 297 300 300 301 304 304 302 302 300 303 310 314 315 317 318 314 312 311 313 312 311 316 320 314 311 297 302
194 193 207 241 255 258 281 297 302 300 301 303 308 308 309 297 294 299 298 298 302 304 306 305 303 303 305 309 310 312 314 317 315 315 316 313 311 316 318 320 324 324 323 322